When you browse on this site, cookies collect data to enhance your experience and personalize the content and advertising you see.
Visit our Privacy Policy to learn more. By continuing to use the site, you agree to this use of cookies and data.
  • In Lithuania
  • List of Countries
  • For 7 days
  • Water Temperature
  • Weather Map
  • Weather Widgets
  • user-avatar
    Login

    Hourly Weather Glubokoe

    Today, 17 September, Tuesday

    Time Temperature Precipitation Wind Pressure Humidity
    00:00 +10°C° 0 mm 4 mps 745 mmHg 73%
    01:00 +8°C° 0 mm 4 mps 745 mmHg 75%
    02:00 +8°C° 0 mm 4 mps 744 mmHg 76%
    03:00 +7°C° 0 mm 4 mps 744 mmHg 79%
    04:00 +7°C° 0 mm 4 mps 744 mmHg 82%
    05:00 +7°C° 0 mm 4 mps 744 mmHg 85%
    06:00 +7°C° 0 mm 5 mps 744 mmHg 82%
    07:00 +8°C° 0 mm 5 mps 744 mmHg 79%
    08:00 +9°C° 0 mm 6 mps 744 mmHg 75%
    09:00 +10°C° 0 mm 6 mps 744 mmHg 68%
    10:00 +13°C° 0 mm 6 mps 744 mmHg 62%
    11:00 +15°C° 0 mm 6 mps 744 mmHg 55%
    12:00 +15°C° 0.1 mm 7 mps 743 mmHg 54%
    13:00 +15°C° 0.1 mm 7 mps 743 mmHg 53%
    14:00 +16°C° 0.1 mm 8 mps 742 mmHg 51%
    15:00 +15°C° 0.1 mm 8 mps 741 mmHg 52%
    16:00 +13°C° 0.1 mm 8 mps 741 mmHg 52%
    17:00 +13°C° 0.1 mm 8 mps 740 mmHg 52%
    18:00 +12°C° 0.2 mm 7 mps 740 mmHg 59%
    19:00 +11°C° 0.2 mm 6 mps 740 mmHg 66%
    20:00 +10°C° 0.2 mm 5 mps 740 mmHg 73%
    21:00 +9°C° 1.1 mm 5 mps 739 mmHg 77%
    22:00 +8°C° 1.1 mm 6 mps 739 mmHg 82%
    23:00 +7°C° 1.1 mm 6 mps 738 mmHg 86%

    Tomorrow, 18 September, Wednesday

    Time Temperature Precipitation Wind Pressure Humidity
    00:00 +7°C° 0.6 mm 6 mps 738 mmHg 85%
    01:00 +7°C° 0.6 mm 6 mps 738 mmHg 84%
    02:00 +6°C° 0.6 mm 7 mps 738 mmHg 83%
    03:00 +5°C° 0.1 mm 7 mps 738 mmHg 84%
    04:00 +5°C° 0.1 mm 7 mps 738 mmHg 84%
    05:00 +4°C° 0.1 mm 7 mps 738 mmHg 85%
    06:00 +5°C° 0.1 mm 7 mps 738 mmHg 84%
    07:00 +5°C° 0.1 mm 7 mps 738 mmHg 83%
    08:00 +6°C° 0.1 mm 7 mps 739 mmHg 82%
    09:00 +7°C° 0.1 mm 8 mps 739 mmHg 76%
    10:00 +9°C° 0.1 mm 8 mps 740 mmHg 70%
    11:00 +11°C° 0.1 mm 8 mps 741 mmHg 65%
    12:00 +11°C° 0.1 mm 8 mps 741 mmHg 61%
    13:00 +12°C° 0.1 mm 9 mps 742 mmHg 57%
    14:00 +13°C° 0.1 mm 9 mps 743 mmHg 54%
    15:00 +12°C° 0.1 mm 9 mps 743 mmHg 59%
    16:00 +11°C° 0.1 mm 8 mps 744 mmHg 64%
    17:00 +10°C° 0.1 mm 8 mps 745 mmHg 69%
    18:00 +10°C° 0 mm 7 mps 745 mmHg 71%
    19:00 +9°C° 0 mm 6 mps 746 mmHg 73%
    20:00 +8°C° 0 mm 5 mps 746 mmHg 74%
    21:00 +8°C° 0 mm 5 mps 747 mmHg 77%
    22:00 +7°C° 0 mm 5 mps 747 mmHg 79%
    23:00 +7°C° 0 mm 5 mps 748 mmHg 81%

    Day after tomorrow, 19 September, Thursday

    Time Temperature Precipitation Wind Pressure Humidity
    00:00 +6°C° 0 mm 5 mps 748 mmHg 83%
    01:00 +6°C° 0 mm 5 mps 748 mmHg 84%
    02:00 +6°C° 0 mm 5 mps 748 mmHg 86%
    03:00 +5°C° 0 mm 5 mps 748 mmHg 87%
    04:00 +5°C° 0 mm 5 mps 748 mmHg 88%
    05:00 +5°C° 0 mm 5 mps 748 mmHg 89%
    06:00 +6°C° 0 mm 5 mps 749 mmHg 87%
    07:00 +6°C° 0 mm 5 mps 749 mmHg 85%
    08:00 +7°C° 0 mm 6 mps 749 mmHg 83%
    09:00 +8°C° 0.1 mm 6 mps 750 mmHg 76%
    10:00 +10°C° 0.1 mm 6 mps 750 mmHg 70%
    11:00 +11°C° 0.1 mm 6 mps 750 mmHg 63%
    12:00 +13°C° 0.3 mm 6 mps 750 mmHg 60%
    13:00 +14°C° 0.3 mm 6 mps 750 mmHg 57%
    14:00 +14°C° 0.3 mm 6 mps 750 mmHg 53%
    15:00 +14°C° 0.4 mm 6 mps 750 mmHg 57%
    16:00 +13°C° 0.4 mm 5 mps 750 mmHg 60%
    17:00 +12°C° 0.4 mm 5 mps 750 mmHg 64%
    18:00 +11°C° 0.2 mm 4 mps 750 mmHg 68%
    19:00 +10°C° 0.2 mm 4 mps 750 mmHg 73%
    20:00 +9°C° 0.2 mm 3 mps 750 mmHg 78%
    21:00 +7°C° 0 mm 4 mps 751 mmHg 80%
    22:00 +7°C° 0 mm 4 mps 751 mmHg 82%
    23:00 +6°C° 0 mm 4 mps 751 mmHg 84%

    20 September, Friday

    Time Temperature Precipitation Wind Pressure Humidity
    00:00 +6°C° 0 mm 4 mps 751 mmHg 86%
    01:00 +5°C° 0 mm 4 mps 751 mmHg 88%
    02:00 +4°C° 0 mm 4 mps 752 mmHg 90%
    03:00 +4°C° 0 mm 4 mps 752 mmHg 91%
    04:00 +4°C° 0 mm 4 mps 752 mmHg 91%
    05:00 +3°C° 0 mm 4 mps 752 mmHg 91%
    06:00 +4°C° 0 mm 4 mps 752 mmHg 86%
    07:00 +5°C° 0 mm 5 mps 752 mmHg 82%
    08:00 +5°C° 0 mm 5 mps 752 mmHg 77%
    09:00 +6°C° 0.1 mm 5 mps 752 mmHg 76%
    10:00 +7°C° 0.1 mm 5 mps 753 mmHg 75%
    11:00 +7°C° 0.1 mm 6 mps 753 mmHg 73%
    12:00 +8°C° 0.1 mm 6 mps 753 mmHg 67%
    13:00 +10°C° 0.1 mm 6 mps 752 mmHg 61%
    14:00 +11°C° 0.1 mm 6 mps 752 mmHg 55%
    15:00 +11°C° 0 mm 6 mps 752 mmHg 53%
    16:00 +11°C° 0 mm 6 mps 752 mmHg 51%
    17:00 +11°C° 0 mm 6 mps 752 mmHg 49%
    18:00 +9°C° 0 mm 5 mps 753 mmHg 54%
    19:00 +8°C° 0 mm 4 mps 753 mmHg 60%
    20:00 +7°C° 0 mm 3 mps 754 mmHg 65%
    21:00 +5°C° 0 mm 3 mps 754 mmHg 69%
    22:00 +5°C° 0 mm 3 mps 755 mmHg 73%
    23:00 +4°C° 0 mm 3 mps 755 mmHg 77%

    21 September, Saturday

    Time Temperature Precipitation Wind Pressure Humidity
    00:00 +5°C° 0 mm 2 mps 755 mmHg 79%
    01:00 +4°C° 0 mm 2 mps 755 mmHg 81%
    02:00 +4°C° 0 mm 2 mps 756 mmHg 83%
    03:00 +4°C° 0 mm 2 mps 756 mmHg 83%
    04:00 +3°C° 0 mm 2 mps 756 mmHg 83%
    05:00 +3°C° 0 mm 2 mps 756 mmHg 82%
    06:00 +4°C° 0 mm 2 mps 757 mmHg 77%
    07:00 +5°C° 0 mm 2 mps 757 mmHg 73%
    08:00 +7°C° 0 mm 1 mps 757 mmHg 68%
    09:00 +8°C° 0 mm 2 mps 757 mmHg 62%
    10:00 +10°C° 0 mm 2 mps 757 mmHg 56%
    11:00 +12°C° 0 mm 2 mps 757 mmHg 49%
    12:00 +12°C° 0 mm 3 mps 757 mmHg 47%
    13:00 +13°C° 0 mm 3 mps 757 mmHg 45%
    14:00 +14°C° 0 mm 4 mps 756 mmHg 42%
    15:00 +14°C° 0 mm 3 mps 756 mmHg 45%
    16:00 +14°C° 0 mm 3 mps 756 mmHg 48%
    17:00 +14°C° 0 mm 3 mps 756 mmHg 50%
    18:00 +13°C° 0 mm 3 mps 756 mmHg 54%
    19:00 +12°C° 0 mm 3 mps 756 mmHg 58%
    20:00 +12°C° 0 mm 2 mps 756 mmHg 62%
    21:00 +10°C° 0 mm 2 mps 756 mmHg 66%
    22:00 +10°C° 0 mm 3 mps 756 mmHg 70%
    23:00 +9°C° 0 mm 3 mps 756 mmHg 74%

    22 September, Sunday

    Time Temperature Precipitation Wind Pressure Humidity
    00:00 +9°C° 0 mm 3 mps 756 mmHg 77%
    01:00 +9°C° 0 mm 3 mps 756 mmHg 80%
    02:00 +9°C° 0 mm 3 mps 756 mmHg 83%
    03:00 +8°C° 0 mm 3 mps 756 mmHg 85%
    04:00 +8°C° 0 mm 3 mps 756 mmHg 87%
    05:00 +8°C° 0 mm 3 mps 756 mmHg 89%
    06:00 +9°C° 0 mm 3 mps 756 mmHg 85%
    07:00 +10°C° 0 mm 3 mps 756 mmHg 81%
    08:00 +11°C° 0 mm 4 mps 756 mmHg 77%
    09:00 +13°C° 0 mm 4 mps 756 mmHg 70%
    10:00 +15°C° 0 mm 4 mps 756 mmHg 63%
    11:00 +18°C° 0 mm 4 mps 756 mmHg 56%
    12:00 +19°C° 0 mm 4 mps 755 mmHg 52%
    13:00 +20°C° 0 mm 4 mps 755 mmHg 49%
    14:00 +20°C° 0 mm 4 mps 755 mmHg 45%
    15:00 +20°C° 0 mm 4 mps 755 mmHg 48%
    16:00 +20°C° 0 mm 3 mps 754 mmHg 50%
    17:00 +20°C° 0 mm 2 mps 754 mmHg 52%
    18:00 +18°C° 0 mm 2 mps 754 mmHg 57%
    19:00 +16°C° 0 mm 1 mps 754 mmHg 61%
    20:00 +14°C° 0 mm 1 mps 754 mmHg 65%
    21:00 +14°C° 0 mm 1 mps 754 mmHg 66%
    22:00 +13°C° 0 mm 1 mps 754 mmHg 66%
    23:00 +13°C° 0 mm 1 mps 754 mmHg 67%
    Show more